This demonstration page uses our WeatherBlox Daily Observations layout. Learn more.

Left ArrowRight Arrow

39.29038, -76.61219

Hourly Observations for December 9, 2020

Temp ( °F °C ) Dew Point ( °F °C ) Humidity (%) Winds ( mph kmh ) Pressure ( in mb ) Visibility ( mi km ) Precip ( " mm )
12:54 am 00:54 Mostly Clear 31 -0.6 20 -6.7 64 64 W 6 9 29.96 1015 10 16 0.00 0.00
1:54 am 01:54 Mostly Clear 30 -1.1 19 -7.2 64 64 WSW 6 9 29.96 1015 10 16 0.00 0.00
2:54 am 02:54 Mostly Clear 31 -0.6 20 -6.7 64 64 WSW 9 15 29.95 1014 10 16 0.00 0.00
3:54 am 03:54 Mostly Cloudy 32 0 20 -6.7 61 61 SW 5 7 29.93 1013 10 16 0.00 0.00
4:54 am 04:54 Mostly Cloudy 32 0 20 -6.7 61 61 SSW 6 9 29.92 1013 10 16 0.00 0.00
5:54 am 05:54 Mostly Cloudy 30 -1.1 20 -6.7 66 66 S 5 7 29.93 1013 10 16 0.00 0.00
6:54 am 06:54 Mostly Cloudy 31 -0.6 20 -6.7 64 64 SSW 5 7 29.94 1014 10 16 0.00 0.00
7:54 am 07:54 Mostly Cloudy 32 0 21 -6.1 64 64 WSW 6 9 29.92 1013 10 16 0.00 0.00
8:54 am 08:54 Cloudy 34 1.1 21 -6.1 59 59 SW 5 7 29.92 1013 10 16 0.00 0.00
9:54 am 09:54 Mostly Cloudy 36 2.2 22 -5.6 57 57 SSW 7 11 29.91 1013 10 16 0.00 0.00
10:54 am 10:54 Mostly Cloudy 37 2.8 23 -5 57 57 WSW 8 13 29.89 1012 10 16 0.00 0.00
11:54 am 11:54 Cloudy 39 3.9 23 -5 53 53 WSW 7 11 29.85 1011 10 16 0.00 0.00
12:54 pm 12:54 Cloudy 41 5 23 -5 49 49 WSW 7 11 29.81 1010 10 16 0.00 0.00
1:54 pm 13:54 Mostly Cloudy 42 5.6 22 -5.6 45 45 SW 8 13 29.78 1008 10 16 0.00 0.00
2:54 pm 14:54 Mostly Cloudy 43 6.1 23 -5 45 45 WSW 7 11 29.77 1008 10 16 0.00 0.00
3:54 pm 15:54 Mostly Cloudy 44 6.7 23 -5 43 43 SW 6 9 29.78 1009 10 16 0.00 0.00
4:54 pm 16:54 Partly Cloudy 42 5.6 24 -4.4 49 49 Calm 29.82 1010 10 16 0.00 0.00
5:54 pm 17:54 Mostly Cloudy 42 5.6 24 -4.4 49 49 Calm 29.83 1010 10 16 0.00 0.00
6:54 pm 18:54 Mostly Clear 36 2.2 24 -4.4 62 62 Calm 29.86 1011 10 16 0.00 0.00
7:54 pm 19:54 Clear 34 1.1 24 -4.4 67 67 Calm 29.89 1012 10 16 0.00 0.00
8:54 pm 20:54 Clear 32 0 24 -4.4 73 73 NW 5 7 29.91 1013 10 16 0.00 0.00
9:54 pm 21:54 Mostly Clear 32 0 24 -4.4 73 73 W 3 6 29.92 1013 10 16 0.00 0.00
10:54 pm 22:54 Mostly Cloudy 34 1.1 25 -3.9 70 70 Calm 29.92 1013 10 16 0.00 0.00
11:54 pm 23:54 Mostly Clear 30 -1.1 24 -4.4 79 79 Calm 29.93 1014 10 16 0.00 0.00

Powered by AerisWeather